Tracking 25656 objects as of 21-May-2022
HD Live streaming from Space Station
objects crossing your sky now

COSMOS 2251 DEB

Track COSMOS 2251 DEB now!
10-day predictions


NORAD ID: 35670
Int'l Code: 1993-036APM
Perigee: 647.2 km
Apogee: 735.4 km
Inclination: 73.9 °
Period: 98.4 minutes
Semi major axis: 7062 km
RCS: 0.0003 m2 (small)
Launch date: June 16, 1993
Source: Commonwealth of Independent States (former USSR) (CIS)
Launch site: PLESETSK MISSILE AND SPACE COMPLEX (PKMTR)

Note: This is SATELLITE DEBRIS
aabbcc
Your satellite tracking list
Your tracking list is empty




NASA's NSSDC Master Catalog

Two Line Element Set (TLE):
1 35670U 93036APM 22140.61197376  .00006976  00000-0  13339-2 0  9990
2 35670  73.9075 107.2351 0062435   1.8470 358.2914 14.62801600685383
Source of the keplerian elements: AFSPC